GALAXY 28 (G-28)

Last updated on Sat Aug 15 2026 00:02:57 GMT+0000 (Coordinated Universal Time)

1 28702U 05022A 26226.34873376 -.00000216 00000+0 00000+0 0 9995 2 28702 3.4432 78.1913 0002566 62.7756 280.2578 1.00271924 52553
UTC large
Height (km)
Speed (km/s)
/
Latitude / Longitude
Inclination (degrees)
Orbital Period (minutes)
Azimuth
Elevation
Range (km)
Doppler Factor

Next 0 passes for location: London (51.5072 / 0.1276)

No passes found over London.
GALAXY 28 (G-28)